TimeEDT,TemperatureF,Dew PointF,Humidity,Sea Level PressureIn,VisibilityMPH,Wind Direction,Wind SpeedMPH,Gust SpeedMPH,PrecipitationIn,Events,Conditions,WindDirDegrees,DateUTC
12:00 AM,53.1,43.0,69,29.96,-9999.0,East,19.6,25.3,N/A,,Overcast,80,2013-04-12 04:00:00
12:42 AM,51.8,42.8,71,29.96,-9999.0,ENE,17.3,23.0,N/A,,Overcast,70,2013-04-12 04:42:00
1:00 AM,51.1,43.0,74,29.95,-9999.0,ENE,16.1,25.3,N/A,,Overcast,70,2013-04-12 05:00:00
2:00 AM,50.0,44.1,80,29.94,-9999.0,East,13.8,21.9,N/A,,Overcast,80,2013-04-12 06:00:00
3:00 AM,51.1,44.1,77,29.93,-9999.0,East,17.3,-,N/A,,Overcast,80,2013-04-12 07:00:00
4:00 AM,50.0,44.1,80,29.93,-9999.0,East,16.1,25.3,N/A,,Overcast,80,2013-04-12 08:00:00
5:00 AM,50.0,44.1,80,29.91,-9999.0,East,20.7,26.5,N/A,,Overcast,80,2013-04-12 09:00:00
6:00 AM,48.9,-9999,N/A,29.88,-9999.0,East,18.4,32.2,N/A,,Overcast,80,2013-04-12 10:00:00
7:00 AM,48.9,-9999,N/A,29.86,-9999.0,East,19.6,32.2,0.00,,Overcast,80,2013-04-12 11:00:00
8:00 AM,48.9,-9999,N/A,29.84,-9999.0,East,19.6,28.8,0.00,,Overcast,80,2013-04-12 12:00:00
9:00 AM,50.0,-9999,N/A,29.82,-9999.0,ENE,21.9,28.8,N/A,Rain,Light Rain,70,2013-04-12 13:00:00
10:00 AM,51.1,-9999,N/A,29.81,-9999.0,ENE,13.8,-,N/A,Rain,Light Rain,60,2013-04-12 14:00:00
11:00 AM,50.0,-9999,N/A,29.82,-9999.0,ENE,16.1,26.5,N/A,Rain,Rain,70,2013-04-12 15:00:00
12:00 PM,51.1,-9999,N/A,29.77,-9999.0,NE,11.5,19.6,N/A,Rain,Heavy Rain,50,2013-04-12 16:00:00
1:00 PM,52.0,-9999,N/A,29.74,-9999.0,ENE,12.7,-,N/A,Rain,Light Rain,60,2013-04-12 17:00:00
2:00 PM,54.0,-9999,N/A,29.72,-9999.0,ENE,11.5,17.3,N/A,Rain,Light Rain,60,2013-04-12 18:00:00
3:00 PM,50.0,-9999,N/A,29.70,-9999.0,Variable,4.6,-,N/A,Rain,Light Rain,0,2013-04-12 19:00:00
4:00 PM,53.1,-9999,N/A,29.69,-9999.0,NE,8.1,16.1,N/A,,Overcast,50,2013-04-12 20:00:00
4:42 PM,51.8,-9999,N/A,29.69,-9999.0,NE,9.2,16.1,N/A,,Overcast,40,2013-04-12 20:42:00
5:00 PM,51.1,-9999,N/A,29.69,-9999.0,NE,6.9,-,N/A,Rain,Light Rain,40,2013-04-12 21:00:00
6:00 PM,52.0,-9999,N/A,29.69,-9999.0,NE,8.1,-,N/A,Rain,Light Rain,50,2013-04-12 22:00:00
7:00 PM,52.0,-9999,N/A,29.68,-9999.0,NE,6.9,-,N/A,,Overcast,40,2013-04-12 23:00:00
8:00 PM,50.0,-9999,N/A,29.67,-9999.0,NE,5.8,-,N/A,,Overcast,40,2013-04-13 00:00:00
9:00 PM,48.0,48.0,100,29.69,-9999.0,Variable,5.8,-,N/A,,Overcast,0,2013-04-13 01:00:00
10:00 PM,53.1,44.1,71,29.71,-9999.0,ENE,9.2,-,N/A,,Overcast,60,2013-04-13 02:00:00
11:00 PM,46.9,45.0,93,29.71,-9999.0,Variable,4.6,-,N/A,,Overcast,0,2013-04-13 03:00:00